When you browse on this site, cookies collect data to enhance your experience and personalize the content and advertising you see.
Visit our Privacy Policy to learn more. By continuing to use the site, you agree to this use of cookies and data.
  • In Lithuania
  • List of Countries
  • For 7 days
  • Water Temperature
  • Satellite Maps
  • Weather Map
  • Weather Widgets
  • user-avatar
    Login

    Hourly Weather Tatarnovichi

    Today, 25 April, Thursday

    Time Temperature Precipitation Wind Pressure Humidity
    00:00 +11°C° 0 mm 4 mps 753 mmHg 64%
    01:00 +10°C° 0 mm 4 mps 753 mmHg 66%
    02:00 +10°C° 0 mm 4 mps 753 mmHg 68%
    03:00 +10°C° 0 mm 4 mps 753 mmHg 69%
    04:00 +8°C° 0 mm 4 mps 752 mmHg 70%
    05:00 +8°C° 0 mm 4 mps 752 mmHg 71%
    06:00 +9°C° 0 mm 5 mps 752 mmHg 69%
    07:00 +10°C° 0 mm 5 mps 752 mmHg 67%
    08:00 +12°C° 0 mm 5 mps 752 mmHg 64%
    09:00 +14°C° 0 mm 5 mps 752 mmHg 61%
    10:00 +16°C° 0 mm 6 mps 752 mmHg 58%
    11:00 +17°C° 0 mm 6 mps 752 mmHg 55%
    12:00 +20°C° 0 mm 6 mps 752 mmHg 53%
    13:00 +21°C° 0 mm 6 mps 751 mmHg 51%
    14:00 +22°C° 0 mm 5 mps 751 mmHg 49%
    15:00 +22°C° 0 mm 5 mps 751 mmHg 49%
    16:00 +22°C° 0 mm 5 mps 751 mmHg 50%
    17:00 +22°C° 0 mm 5 mps 750 mmHg 51%
    18:00 +20°C° 0.3 mm 4 mps 750 mmHg 59%
    19:00 +18°C° 0.3 mm 4 mps 750 mmHg 67%
    20:00 +16°C° 0.3 mm 3 mps 750 mmHg 75%
    21:00 +15°C° 0.8 mm 4 mps 750 mmHg 78%
    22:00 +14°C° 0.8 mm 4 mps 750 mmHg 81%
    23:00 +13°C° 0.8 mm 4 mps 750 mmHg 85%

    Tomorrow, 26 April, Friday

    Time Temperature Precipitation Wind Pressure Humidity
    00:00 +13°C° 0.1 mm 4 mps 750 mmHg 86%
    01:00 +12°C° 0.1 mm 4 mps 750 mmHg 88%
    02:00 +12°C° 0.1 mm 3 mps 750 mmHg 90%
    03:00 +11°C° 0.3 mm 3 mps 749 mmHg 91%
    04:00 +11°C° 0.3 mm 3 mps 749 mmHg 93%
    05:00 +10°C° 0.3 mm 3 mps 749 mmHg 94%
    06:00 +12°C° 0 mm 4 mps 749 mmHg 90%
    07:00 +13°C° 0 mm 4 mps 749 mmHg 87%
    08:00 +14°C° 0 mm 4 mps 748 mmHg 83%
    09:00 +18°C° 0 mm 4 mps 748 mmHg 77%
    10:00 +20°C° 0 mm 5 mps 748 mmHg 70%
    11:00 +22°C° 0 mm 5 mps 748 mmHg 64%
    12:00 +22°C° 0.4 mm 5 mps 747 mmHg 61%
    13:00 +23°C° 0.4 mm 6 mps 747 mmHg 57%
    14:00 +24°C° 0.4 mm 6 mps 746 mmHg 54%
    15:00 +24°C° 0.7 mm 6 mps 746 mmHg 56%
    16:00 +25°C° 0.7 mm 5 mps 746 mmHg 58%
    17:00 +23°C° 0.7 mm 5 mps 745 mmHg 61%
    18:00 +22°C° 0.2 mm 4 mps 745 mmHg 64%
    19:00 +21°C° 0.2 mm 4 mps 745 mmHg 68%
    20:00 +19°C° 0.2 mm 4 mps 745 mmHg 72%
    21:00 +18°C° 0.8 mm 4 mps 745 mmHg 77%
    22:00 +17°C° 0.8 mm 5 mps 744 mmHg 83%
    23:00 +16°C° 0.8 mm 5 mps 744 mmHg 88%

    Day after tomorrow, 27 April, Saturday

    Time Temperature Precipitation Wind Pressure Humidity
    00:00 +15°C° 0.3 mm 5 mps 744 mmHg 90%
    01:00 +15°C° 0.3 mm 5 mps 744 mmHg 91%
    02:00 +15°C° 0.3 mm 4 mps 744 mmHg 93%
    03:00 +14°C° 0.2 mm 4 mps 743 mmHg 94%
    04:00 +14°C° 0.2 mm 3 mps 743 mmHg 94%
    05:00 +14°C° 0.2 mm 3 mps 743 mmHg 95%
    06:00 +15°C° 0 mm 4 mps 743 mmHg 89%
    07:00 +17°C° 0 mm 4 mps 743 mmHg 83%
    08:00 +19°C° 0 mm 5 mps 743 mmHg 76%
    09:00 +20°C° 0 mm 5 mps 743 mmHg 74%
    10:00 +21°C° 0 mm 5 mps 743 mmHg 71%
    11:00 +22°C° 0 mm 6 mps 743 mmHg 68%
    12:00 +22°C° 0 mm 5 mps 743 mmHg 66%
    13:00 +22°C° 0 mm 5 mps 743 mmHg 64%
    14:00 +22°C° 0 mm 5 mps 743 mmHg 62%
    15:00 +22°C° 0 mm 5 mps 743 mmHg 64%
    16:00 +21°C° 0 mm 5 mps 743 mmHg 65%
    17:00 +21°C° 0 mm 5 mps 743 mmHg 66%
    18:00 +19°C° 0 mm 4 mps 743 mmHg 72%
    19:00 +17°C° 0 mm 3 mps 743 mmHg 77%
    20:00 +16°C° 0 mm 3 mps 743 mmHg 83%
    21:00 +15°C° 0 mm 2 mps 743 mmHg 85%
    22:00 +15°C° 0 mm 2 mps 743 mmHg 88%
    23:00 +14°C° 0 mm 2 mps 743 mmHg 91%

    28 April, Sunday

    Time Temperature Precipitation Wind Pressure Humidity
    00:00 +14°C° 0 mm 2 mps 743 mmHg 92%
    01:00 +13°C° 0 mm 2 mps 743 mmHg 93%
    02:00 +12°C° 0 mm 3 mps 743 mmHg 94%
    03:00 +13°C° 0 mm 2 mps 743 mmHg 95%
    04:00 +12°C° 0 mm 2 mps 743 mmHg 96%
    05:00 +12°C° 0 mm 2 mps 743 mmHg 97%
    06:00 +13°C° 0 mm 2 mps 743 mmHg 92%
    07:00 +13°C° 0 mm 3 mps 743 mmHg 88%
    08:00 +14°C° 0 mm 4 mps 743 mmHg 83%
    09:00 +16°C° 0 mm 3 mps 743 mmHg 77%
    10:00 +18°C° 0 mm 3 mps 744 mmHg 71%
    11:00 +19°C° 0 mm 3 mps 744 mmHg 65%
    12:00 +20°C° 0 mm 4 mps 744 mmHg 64%
    13:00 +21°C° 0 mm 4 mps 743 mmHg 62%
    14:00 +22°C° 0 mm 4 mps 743 mmHg 61%
    15:00 +21°C° 0.8 mm 4 mps 743 mmHg 64%
    16:00 +21°C° 0.8 mm 4 mps 743 mmHg 68%
    17:00 +20°C° 0.8 mm 5 mps 743 mmHg 71%
    18:00 +19°C° 0.9 mm 5 mps 743 mmHg 77%
    19:00 +17°C° 0.9 mm 5 mps 743 mmHg 82%
    20:00 +16°C° 0.9 mm 5 mps 744 mmHg 87%
    21:00 +15°C° 0.9 mm 5 mps 744 mmHg 89%
    22:00 +14°C° 0.9 mm 6 mps 744 mmHg 90%
    23:00 +14°C° 0.9 mm 7 mps 744 mmHg 91%

    29 April, Monday

    Time Temperature Precipitation Wind Pressure Humidity
    00:00 +12°C° 0.6 mm 7 mps 744 mmHg 91%
    01:00 +11°C° 0.6 mm 7 mps 744 mmHg 91%
    02:00 +10°C° 0.6 mm 6 mps 745 mmHg 91%
    03:00 +10°C° 0.4 mm 6 mps 745 mmHg 91%
    04:00 +10°C° 0.4 mm 6 mps 745 mmHg 90%
    05:00 +9°C° 0.4 mm 6 mps 745 mmHg 90%
    06:00 +8°C° 0.6 mm 7 mps 746 mmHg 90%
    07:00 +6°C° 0.6 mm 7 mps 746 mmHg 89%
    08:00 +6°C° 0.6 mm 7 mps 746 mmHg 89%
    09:00 +5°C° 1.3 mm 7 mps 747 mmHg 88%
    10:00 +5°C° 1.3 mm 7 mps 747 mmHg 86%
    11:00 +5°C° 1.3 mm 7 mps 747 mmHg 85%
    12:00 +6°C° 0.2 mm 7 mps 747 mmHg 82%
    13:00 +8°C° 0.2 mm 7 mps 747 mmHg 79%
    14:00 +9°C° 0.2 mm 7 mps 748 mmHg 76%
    15:00 +9°C° 0 mm 6 mps 748 mmHg 74%
    16:00 +9°C° 0 mm 6 mps 747 mmHg 71%
    17:00 +9°C° 0 mm 6 mps 747 mmHg 69%
    18:00 +9°C° 0 mm 5 mps 748 mmHg 69%
    19:00 +8°C° 0 mm 5 mps 748 mmHg 70%
    20:00 +8°C° 0 mm 4 mps 748 mmHg 70%
    21:00 +7°C° 0 mm 4 mps 748 mmHg 72%
    22:00 +6°C° 0 mm 4 mps 748 mmHg 74%
    23:00 +5°C° 0 mm 4 mps 748 mmHg 76%

    30 April, Tuesday

    Time Temperature Precipitation Wind Pressure Humidity
    00:00 +5°C° 0 mm 4 mps 748 mmHg 76%
    01:00 +5°C° 0 mm 5 mps 748 mmHg 75%
    02:00 +5°C° 0 mm 5 mps 748 mmHg 75%
    03:00 +5°C° 0 mm 5 mps 748 mmHg 74%
    04:00 +4°C° 0 mm 6 mps 748 mmHg 72%
    05:00 +4°C° 0 mm 6 mps 748 mmHg 71%
    06:00 +4°C° 0 mm 7 mps 748 mmHg 71%
    07:00 +4°C° 0 mm 7 mps 748 mmHg 71%
    08:00 +4°C° 0 mm 7 mps 748 mmHg 70%
    09:00 +5°C° 0 mm 7 mps 748 mmHg 70%
    10:00 +5°C° 0 mm 7 mps 748 mmHg 71%
    11:00 +6°C° 0 mm 7 mps 748 mmHg 71%
    12:00 +8°C° 0 mm 7 mps 748 mmHg 70%
    13:00 +8°C° 0 mm 7 mps 748 mmHg 69%
    14:00 +9°C° 0 mm 7 mps 748 mmHg 69%
    15:00 +9°C° 0 mm 7 mps 748 mmHg 69%
    16:00 +9°C° 0 mm 7 mps 748 mmHg 69%
    17:00 +9°C° 0 mm 6 mps 747 mmHg 70%
    18:00 +8°C° 0 mm 5 mps 747 mmHg 71%
    19:00 +7°C° 0 mm 5 mps 747 mmHg 73%
    20:00 +7°C° 0 mm 4 mps 747 mmHg 74%
    21:00 +6°C° 0 mm 4 mps 747 mmHg 74%
    22:00 +6°C° 0 mm 4 mps 747 mmHg 74%
    23:00 +5°C° 0 mm 4 mps 747 mmHg 74%
    Show more